Time,TemperatureF,DewpointF,PressureIn,WindDirection,WindDirectionDegrees,WindSpeedMPH,WindSpeedGustMPH,Humidity,HourlyPrecipIn,Conditions,Clouds,dailyrainin,SoftwareType,DateUTC
2013-12-11 00:00:00,18.6,17.2,30.06,NNE,19,0.0,8.0,94,0.00,,,0.00,Wunderground v.1.15,2013-12-11 05:00:00,
2013-12-11 00:05:00,18.6,16.9,30.06,NNE,19,0.0,8.0,93,0.00,,,0.00,Wunderground v.1.15,2013-12-11 05:05:00,
2013-12-11 00:10:00,18.6,16.9,30.06,NNE,19,0.0,8.0,93,0.00,,,0.00,Wunderground v.1.15,2013-12-11 05:10:00,
2013-12-11 00:20:00,18.5,16.6,30.07,NNW,331,0.0,8.0,92,0.00,,,0.00,Wunderground v.1.15,2013-12-11 05:20:00,
2013-12-11 00:25:00,18.6,16.7,30.07,NNW,331,0.0,8.0,92,0.00,,,0.00,Wunderground v.1.15,2013-12-11 05:25:00,
2013-12-11 00:30:00,18.7,16.8,30.07,NNW,331,0.0,8.0,92,0.00,,,0.00,Wunderground v.1.15,2013-12-11 05:30:00,
2013-12-11 00:35:00,18.7,16.5,30.07,NNE,24,0.0,8.0,91,0.00,,,0.00,Wunderground v.1.15,2013-12-11 05:35:00,
2013-12-11 00:40:00,18.8,16.6,30.07,NNW,346,0.0,8.0,91,0.00,,,0.00,Wunderground v.1.15,2013-12-11 05:40:00,
2013-12-11 00:50:00,18.7,16.3,30.08,WNW,294,0.0,8.0,90,0.00,,,0.00,Wunderground v.1.15,2013-12-11 05:50:00,
2013-12-11 00:55:00,18.6,16.2,30.08,WNW,294,0.0,8.0,90,0.00,,,0.00,Wunderground v.1.15,2013-12-11 05:55:00,
2013-12-11 01:00:00,18.6,16.2,30.08,WNW,294,0.0,8.0,90,0.00,,,0.00,Wunderground v.1.15,2013-12-11 06:00:00,
2013-12-11 01:05:00,18.7,16.3,30.08,WNW,294,0.0,8.0,90,0.00,,,0.00,Wunderground v.1.15,2013-12-11 06:05:00,
2013-12-11 01:10:00,18.6,16.2,30.09,WNW,295,0.0,8.0,90,0.00,,,0.00,Wunderground v.1.15,2013-12-11 06:10:00,
2013-12-11 01:15:00,18.6,15.9,30.08,NW,309,0.0,8.0,89,0.00,,,0.00,Wunderground v.1.15,2013-12-11 06:15:00,
2013-12-11 01:20:00,18.5,15.8,30.09,West,279,0.0,8.0,89,0.00,,,0.00,Wunderground v.1.15,2013-12-11 06:20:00,
2013-12-11 01:30:00,18.6,15.9,30.09,NW,311,0.0,8.0,89,0.00,,,0.00,Wunderground v.1.15,2013-12-11 06:30:00,
2013-12-11 01:35:00,18.7,16.0,30.09,WNW,284,0.0,8.0,89,0.00,,,0.00,Wunderground v.1.15,2013-12-11 06:35:00,
2013-12-11 01:40:00,18.8,16.1,30.10,NW,315,0.0,8.0,89,0.00,,,0.00,Wunderground v.1.15,2013-12-11 06:40:00,
2013-12-11 01:45:00,18.9,15.9,30.10,NW,319,0.0,8.0,88,0.00,,,0.00,Wunderground v.1.15,2013-12-11 06:45:00,
2013-12-11 01:50:00,18.8,15.6,30.10,WNW,291,0.0,8.0,87,0.00,,,0.00,Wunderground v.1.15,2013-12-11 06:50:00,
2013-12-11 01:55:00,18.7,15.5,30.11,WNW,291,0.0,8.0,87,0.00,,,0.00,Wunderground v.1.15,2013-12-11 06:55:00,
2013-12-11 02:00:00,18.6,15.4,30.11,West,279,0.0,8.0,87,0.00,,,0.00,Wunderground v.1.15,2013-12-11 07:00:00,
2013-12-11 02:05:00,18.5,15.3,30.11,NE,41,0.0,8.0,87,0.00,,,0.00,Wunderground v.1.15,2013-12-11 07:05:00,
2013-12-11 02:10:00,18.4,15.2,30.11,NE,41,0.0,8.0,87,0.00,,,0.00,Wunderground v.1.15,2013-12-11 07:10:00,
2013-12-11 02:15:00,18.4,15.4,30.12,West,262,0.0,8.0,88,0.00,,,0.00,Wunderground v.1.15,2013-12-11 07:15:00,
2013-12-11 02:20:00,18.3,15.1,30.11,West,262,0.0,8.0,87,0.00,,,0.00,Wunderground v.1.15,2013-12-11 07:20:00,
2013-12-11 02:25:00,18.1,14.9,30.12,WNW,287,0.0,8.0,87,0.00,,,0.00,Wunderground v.1.15,2013-12-11 07:25:00,
2013-12-11 02:30:00,18.0,14.8,30.12,WNW,291,0.0,8.0,87,0.00,,,0.00,Wunderground v.1.15,2013-12-11 07:30:00,
2013-12-11 02:35:00,17.9,14.9,30.13,WNW,291,0.0,8.0,88,0.00,,,0.00,Wunderground v.1.15,2013-12-11 07:35:00,
2013-12-11 02:40:00,17.6,14.4,30.13,WNW,291,0.0,8.0,87,0.00,,,0.00,Wunderground v.1.15,2013-12-11 07:40:00,
2013-12-11 02:45:00,17.3,14.4,30.13,WNW,291,0.0,8.0,88,0.00,,,0.00,Wunderground v.1.15,2013-12-11 07:45:00,
2013-12-11 02:55:00,17.1,14.4,30.14,West,265,0.0,8.0,89,0.00,,,0.00,Wunderground v.1.15,2013-12-11 07:55:00,
2013-12-11 03:00:00,17.4,14.7,30.13,West,265,0.0,8.0,89,0.00,,,0.00,Wunderground v.1.15,2013-12-11 08:00:00,
2013-12-11 03:05:00,17.4,14.7,30.14,West,266,0.0,8.0,89,0.00,,,0.00,Wunderground v.1.15,2013-12-11 08:05:00,
2013-12-11 03:10:00,17.7,14.8,30.14,WNW,297,0.0,8.0,88,0.00,,,0.00,Wunderground v.1.15,2013-12-11 08:10:00,
2013-12-11 03:15:00,17.6,14.7,30.14,NNW,340,0.0,8.0,88,0.00,,,0.00,Wunderground v.1.15,2013-12-11 08:15:00,
2013-12-11 03:20:00,17.4,14.2,30.14,NNW,340,0.0,8.0,87,0.00,,,0.00,Wunderground v.1.15,2013-12-11 08:20:00,
2013-12-11 03:25:00,17.2,14.3,30.15,NW,316,0.0,8.0,88,0.00,,,0.00,Wunderground v.1.15,2013-12-11 08:25:00,
2013-12-11 03:40:00,17.2,14.3,30.16,WNW,289,0.0,8.0,88,0.00,,,0.00,Wunderground v.1.15,2013-12-11 08:40:00,
2013-12-11 03:50:00,17.1,14.2,30.17,West,271,0.0,8.0,88,0.00,,,0.00,Wunderground v.1.15,2013-12-11 08:50:00,
2013-12-11 03:55:00,17.0,14.1,30.16,West,259,0.0,8.0,88,0.00,,,0.00,Wunderground v.1.15,2013-12-11 08:55:00,
2013-12-11 04:00:00,17.1,14.2,30.17,WNW,295,0.0,8.0,88,0.00,,,0.00,Wunderground v.1.15,2013-12-11 09:00:00,
2013-12-11 04:05:00,17.1,14.2,30.16,NW,315,0.0,8.0,88,0.00,,,0.00,Wunderground v.1.15,2013-12-11 09:05:00,
2013-12-11 04:10:00,17.4,14.7,30.16,NW,316,0.0,8.0,89,0.00,,,0.00,Wunderground v.1.15,2013-12-11 09:10:00,
2013-12-11 04:15:00,17.5,14.6,30.17,NW,321,0.0,8.0,88,0.00,,,0.00,Wunderground v.1.15,2013-12-11 09:15:00,
2013-12-11 04:20:00,17.4,14.5,30.17,NW,313,0.0,8.0,88,0.00,,,0.00,Wunderground v.1.15,2013-12-11 09:20:00,
2013-12-11 04:30:00,17.3,14.4,30.17,NW,304,0.0,8.0,88,0.00,,,0.00,Wunderground v.1.15,2013-12-11 09:30:00,
2013-12-11 04:35:00,17.3,14.4,30.17,WNW,302,0.0,8.0,88,0.00,,,0.00,Wunderground v.1.15,2013-12-11 09:35:00,
2013-12-11 04:40:00,17.3,14.4,30.17,WNW,302,0.0,8.0,88,0.00,,,0.00,Wunderground v.1.15,2013-12-11 09:40:00,
2013-12-11 04:45:00,17.3,14.4,30.18,WNW,302,0.0,8.0,88,0.00,,,0.00,Wunderground v.1.15,2013-12-11 09:45:00,
2013-12-11 04:50:00,17.5,14.6,30.18,NW,305,0.0,8.0,88,0.00,,,0.00,Wunderground v.1.15,2013-12-11 09:50:00,
2013-12-11 04:55:00,17.5,14.6,30.18,NW,305,0.0,8.0,88,0.00,,,0.00,Wunderground v.1.15,2013-12-11 09:55:00,
2013-12-11 05:00:00,17.6,14.7,30.18,WNW,303,0.0,8.0,88,0.00,,,0.00,Wunderground v.1.15,2013-12-11 10:00:00,
2013-12-11 05:05:00,17.7,14.5,30.18,WNW,303,0.0,8.0,87,0.00,,,0.00,Wunderground v.1.15,2013-12-11 10:05:00,
2013-12-11 05:15:00,17.5,14.3,30.18,WNW,303,0.0,8.0,87,0.00,,,0.00,Wunderground v.1.15,2013-12-11 10:15:00,
2013-12-11 05:20:00,17.5,14.3,30.19,WNW,303,0.0,8.0,87,0.00,,,0.00,Wunderground v.1.15,2013-12-11 10:20:00,
2013-12-11 05:25:00,17.4,14.2,30.19,WNW,303,0.0,8.0,87,0.00,,,0.00,Wunderground v.1.15,2013-12-11 10:25:00,
2013-12-11 05:30:00,17.3,14.1,30.19,NW,322,0.0,8.0,87,0.00,,,0.00,Wunderground v.1.15,2013-12-11 10:30:00,
2013-12-11 05:35:00,17.3,14.4,30.20,NW,304,0.0,8.0,88,0.00,,,0.00,Wunderground v.1.15,2013-12-11 10:35:00,
2013-12-11 05:40:00,17.6,14.7,30.20,WNW,294,0.0,8.0,88,0.00,,,0.00,Wunderground v.1.15,2013-12-11 10:40:00,
2013-12-11 05:45:00,17.6,14.4,30.21,WNW,294,0.0,8.0,87,0.00,,,0.00,Wunderground v.1.15,2013-12-11 10:45:00,
2013-12-11 05:55:00,17.8,14.6,30.21,WNW,300,0.0,8.0,87,0.00,,,0.00,Wunderground v.1.15,2013-12-11 10:55:00,
2013-12-11 06:00:00,17.9,14.7,30.21,NW,309,0.0,8.0,87,0.00,,,0.00,Wunderground v.1.15,2013-12-11 11:00:00,
2013-12-11 06:05:00,18.0,14.8,30.21,NW,306,1.0,8.0,87,0.00,,,0.00,Wunderground v.1.15,2013-12-11 11:05:00,
2013-12-11 06:10:00,18.0,14.5,30.22,WNW,289,1.0,1.0,86,0.00,,,0.00,Wunderground v.1.15,2013-12-11 11:10:00,
2013-12-11 06:20:00,17.8,14.3,30.22,WSW,258,0.0,8.0,86,0.00,,,0.00,Wunderground v.1.15,2013-12-11 11:20:00,
2013-12-11 06:25:00,17.6,14.1,30.22,West,280,0.0,8.0,86,0.00,,,0.00,Wunderground v.1.15,2013-12-11 11:25:00,
2013-12-11 06:30:00,17.7,14.2,30.23,WNW,288,0.0,8.0,86,0.00,,,0.00,Wunderground v.1.15,2013-12-11 11:30:00,
2013-12-11 06:40:00,17.6,14.1,30.23,WNW,298,0.0,8.0,86,0.00,,,0.00,Wunderground v.1.15,2013-12-11 11:40:00,
2013-12-11 06:45:00,17.5,14.3,30.23,WNW,295,0.0,8.0,87,0.00,,,0.00,Wunderground v.1.15,2013-12-11 11:45:00,
2013-12-11 06:50:00,17.7,14.5,30.24,WNW,302,0.0,8.0,87,0.00,,,0.00,Wunderground v.1.15,2013-12-11 11:50:00,
2013-12-11 06:55:00,17.8,14.3,30.24,WNW,294,1.0,8.0,86,0.00,,,0.00,Wunderground v.1.15,2013-12-11 11:55:00,
2013-12-11 07:00:00,17.8,14.3,30.24,NW,309,0.0,8.0,86,0.00,,,0.00,Wunderground v.1.15,2013-12-11 12:00:00,
2013-12-11 07:05:00,17.8,14.3,30.24,WNW,302,0.0,8.0,86,0.00,,,0.00,Wunderground v.1.15,2013-12-11 12:05:00,
2013-12-11 07:10:00,17.7,14.2,30.25,NW,321,0.0,8.0,86,0.00,,,0.00,Wunderground v.1.15,2013-12-11 12:10:00,
2013-12-11 07:15:00,17.8,14.3,30.25,NNW,330,0.0,8.0,86,0.00,,,0.00,Wunderground v.1.15,2013-12-11 12:15:00,
2013-12-11 07:20:00,17.9,14.4,30.25,NW,317,0.0,8.0,86,0.00,,,0.00,Wunderground v.1.15,2013-12-11 12:20:00,
2013-12-11 07:25:00,17.9,14.4,30.25,WNW,297,1.0,8.0,86,0.00,,,0.00,Wunderground v.1.15,2013-12-11 12:25:00,
2013-12-11 07:35:00,18.6,15.1,30.25,WNW,300,1.0,8.0,86,0.00,,,0.00,Wunderground v.1.15,2013-12-11 12:35:00,
2013-12-11 07:40:00,18.9,15.4,30.25,NW,322,1.0,8.0,86,0.00,,,0.00,Wunderground v.1.15,2013-12-11 12:40:00,
2013-12-11 07:45:00,19.1,15.3,30.25,West,268,1.0,8.0,85,0.00,,,0.00,Wunderground v.1.15,2013-12-11 12:45:00,
2013-12-11 07:50:00,19.4,15.6,30.25,North,360,1.0,1.0,85,0.00,,,0.00,Wunderground v.1.15,2013-12-11 12:50:00,
2013-12-11 08:00:00,19.7,15.9,30.25,NW,324,1.0,8.0,85,0.00,,,0.00,Wunderground v.1.15,2013-12-11 13:00:00,
2013-12-11 08:05:00,19.8,15.7,30.25,NW,315,1.0,8.0,84,0.00,,,0.00,Wunderground v.1.15,2013-12-11 13:05:00,
2013-12-11 08:10:00,19.9,15.8,30.25,NW,313,1.0,8.0,84,0.00,,,0.00,Wunderground v.1.15,2013-12-11 13:10:00,
2013-12-11 08:15:00,20.2,16.1,30.25,WNW,291,1.0,8.0,84,0.00,,,0.00,Wunderground v.1.15,2013-12-11 13:15:00,
2013-12-11 08:20:00,20.4,16.3,30.26,NW,310,1.0,8.0,84,0.00,,,0.00,Wunderground v.1.15,2013-12-11 13:20:00,
2013-12-11 08:30:00,20.7,16.4,30.26,WNW,294,1.0,8.0,83,0.00,,,0.00,Wunderground v.1.15,2013-12-11 13:30:00,
2013-12-11 08:35:00,20.9,16.5,30.25,WNW,302,1.0,8.0,83,0.00,,,0.00,Wunderground v.1.15,2013-12-11 13:35:00,
2013-12-11 08:40:00,21.0,16.6,30.26,NW,323,1.0,8.0,83,0.00,,,0.00,Wunderground v.1.15,2013-12-11 13:40:00,
2013-12-11 08:45:00,21.2,16.8,30.26,WNW,294,2.0,8.0,83,0.00,,,0.00,Wunderground v.1.15,2013-12-11 13:45:00,
2013-12-11 08:50:00,21.4,17.0,30.25,WNW,298,2.0,8.0,83,0.00,,,0.00,Wunderground v.1.15,2013-12-11 13:50:00,
2013-12-11 08:55:00,21.7,17.1,30.25,West,269,1.0,8.0,82,0.00,,,0.00,Wunderground v.1.15,2013-12-11 13:55:00,
2013-12-11 09:00:00,21.8,17.2,30.26,NW,304,1.0,8.0,82,0.00,,,0.00,Wunderground v.1.15,2013-12-11 14:00:00,
2013-12-11 09:05:00,21.8,16.9,30.26,WNW,291,2.0,8.0,81,0.00,,,0.00,Wunderground v.1.15,2013-12-11 14:05:00,
2013-12-11 09:10:00,22.0,17.3,30.26,WSW,257,2.0,8.0,82,0.00,,,0.00,Wunderground v.1.15,2013-12-11 14:10:00,
2013-12-11 09:20:00,22.2,17.5,30.26,WNW,298,2.0,2.0,82,0.00,,,0.00,Wunderground v.1.15,2013-12-11 14:20:00,
2013-12-11 09:25:00,22.2,17.3,30.26,WNW,296,2.0,8.0,81,0.00,,,0.00,Wunderground v.1.15,2013-12-11 14:25:00,
2013-12-11 09:30:00,22.4,17.7,30.26,North,360,2.0,2.0,82,0.00,,,0.00,Wunderground v.1.15,2013-12-11 14:30:00,
2013-12-11 09:35:00,22.8,18.1,30.26,North,355,1.0,8.0,82,0.00,,,0.00,Wunderground v.1.15,2013-12-11 14:35:00,
2013-12-11 09:40:00,23.2,18.5,30.26,WNW,295,1.0,8.0,82,0.00,,,0.00,Wunderground v.1.15,2013-12-11 14:40:00,
2013-12-11 09:45:00,23.3,18.0,30.27,West,260,2.0,8.0,80,0.00,,,0.00,Wunderground v.1.15,2013-12-11 14:45:00,
2013-12-11 09:50:00,23.5,18.5,30.27,WNW,302,2.0,8.0,81,0.00,,,0.00,Wunderground v.1.15,2013-12-11 14:50:00,
2013-12-11 09:55:00,23.4,18.1,30.27,North,355,2.0,8.0,80,0.00,,,0.00,Wunderground v.1.15,2013-12-11 14:55:00,
2013-12-11 10:00:00,23.2,17.9,30.27,WNW,299,2.0,2.0,80,0.00,,,0.00,Wunderground v.1.15,2013-12-11 15:00:00,
2013-12-11 10:10:00,23.0,18.0,30.27,WNW,298,2.0,2.0,81,0.00,,,0.00,Wunderground v.1.15,2013-12-11 15:10:00,
2013-12-11 10:15:00,23.1,18.1,30.27,NNW,333,1.0,8.0,81,0.00,,,0.00,Wunderground v.1.15,2013-12-11 15:15:00,
2013-12-11 10:20:00,23.1,17.8,30.27,NW,309,2.0,2.0,80,0.00,,,0.00,Wunderground v.1.15,2013-12-11 15:20:00,
2013-12-11 10:25:00,23.3,18.0,30.27,NW,310,2.0,8.0,80,0.00,,,0.00,Wunderground v.1.15,2013-12-11 15:25:00,
2013-12-11 10:30:00,23.3,18.0,30.26,WNW,284,2.0,8.0,80,0.00,,,0.00,Wunderground v.1.15,2013-12-11 15:30:00,
2013-12-11 10:35:00,23.4,18.1,30.26,WNW,283,2.0,8.0,80,0.00,,,0.00,Wunderground v.1.15,2013-12-11 15:35:00,
2013-12-11 10:40:00,23.4,18.1,30.26,NNE,32,2.0,2.0,80,0.00,,,0.00,Wunderground v.1.15,2013-12-11 15:40:00,
2013-12-11 10:50:00,23.8,18.5,30.26,NW,315,2.0,8.0,80,0.00,,,0.00,Wunderground v.1.15,2013-12-11 15:50:00,
2013-12-11 10:55:00,23.9,18.3,30.25,WNW,299,2.0,8.0,79,0.00,,,0.00,Wunderground v.1.15,2013-12-11 15:55:00,
2013-12-11 11:00:00,24.1,18.5,30.25,WNW,295,2.0,2.0,79,0.00,,,0.00,Wunderground v.1.15,2013-12-11 16:00:00,
2013-12-11 11:05:00,24.0,18.4,30.25,WNW,299,2.0,8.0,79,0.00,,,0.00,Wunderground v.1.15,2013-12-11 16:05:00,
2013-12-11 11:10:00,23.9,18.6,30.24,NNW,332,2.0,2.0,80,0.00,,,0.00,Wunderground v.1.15,2013-12-11 16:10:00,
2013-12-11 11:20:00,23.6,18.0,30.24,North,355,2.0,2.0,79,0.00,,,0.00,Wunderground v.1.15,2013-12-11 16:20:00,
2013-12-11 11:25:00,23.5,18.2,30.24,NW,326,2.0,3.0,80,0.00,,,0.00,Wunderground v.1.15,2013-12-11 16:25:00,
2013-12-11 11:30:00,23.4,18.4,30.24,NW,325,1.0,8.0,81,0.00,,,0.00,Wunderground v.1.15,2013-12-11 16:30:00,
2013-12-11 11:35:00,23.5,18.5,30.24,South,184,2.0,8.0,81,0.00,,,0.00,Wunderground v.1.15,2013-12-11 16:35:00,
2013-12-11 11:40:00,23.5,18.2,30.23,WNW,285,2.0,8.0,80,0.00,,,0.00,Wunderground v.1.15,2013-12-11 16:40:00,
2013-12-11 11:45:00,23.7,18.7,30.24,WNW,286,1.0,8.0,81,0.00,,,0.00,Wunderground v.1.15,2013-12-11 16:45:00,
2013-12-11 11:50:00,23.8,18.8,30.23,West,271,1.0,8.0,81,0.00,,,0.00,Wunderground v.1.15,2013-12-11 16:50:00,
2013-12-11 11:55:00,23.8,18.8,30.23,WNW,298,2.0,8.0,81,0.00,,,0.00,Wunderground v.1.15,2013-12-11 16:55:00,
2013-12-11 12:00:00,23.8,18.8,30.23,NNW,329,2.0,8.0,81,0.00,,,0.00,Wunderground v.1.15,2013-12-11 17:00:00,
2013-12-11 12:05:00,23.9,18.9,30.23,NW,310,2.0,8.0,81,0.00,,,0.00,Wunderground v.1.15,2013-12-11 17:05:00,
2013-12-11 12:15:00,23.9,18.9,30.23,NNW,331,2.0,8.0,81,0.00,,,0.00,Wunderground v.1.15,2013-12-11 17:15:00,
2013-12-11 12:20:00,23.9,18.9,30.23,NW,304,3.0,3.0,81,0.00,,,0.00,Wunderground v.1.15,2013-12-11 17:20:00,
2013-12-11 12:25:00,23.9,19.2,30.23,NW,308,2.0,8.0,82,0.00,,,0.00,Wunderground v.1.15,2013-12-11 17:25:00,
2013-12-11 12:30:00,24.0,19.0,30.23,NW,313,2.0,8.0,81,0.00,,,0.00,Wunderground v.1.15,2013-12-11 17:30:00,
2013-12-11 12:35:00,24.0,19.0,30.22,NW,310,3.0,8.0,81,0.00,,,0.00,Wunderground v.1.15,2013-12-11 17:35:00,
2013-12-11 12:40:00,24.1,19.1,30.22,WNW,288,3.0,3.0,81,0.00,,,0.00,Wunderground v.1.15,2013-12-11 17:40:00,
2013-12-11 12:45:00,24.3,19.3,30.22,West,261,2.0,8.0,81,0.00,,,0.00,Wunderground v.1.15,2013-12-11 17:45:00,
2013-12-11 12:50:00,24.4,19.4,30.22,West,266,2.0,8.0,81,0.00,,,0.00,Wunderground v.1.15,2013-12-11 17:50:00,
2013-12-11 13:00:00,24.4,19.1,30.22,WNW,291,3.0,3.0,80,0.00,,,0.00,Wunderground v.1.15,2013-12-11 18:00:00,
2013-12-11 13:10:00,24.5,18.9,30.21,NW,325,2.0,2.0,79,0.00,,,0.00,Wunderground v.1.15,2013-12-11 18:10:00,
2013-12-11 13:15:00,24.4,18.8,30.21,WNW,297,3.0,4.0,79,0.00,,,0.00,Wunderground v.1.15,2013-12-11 18:15:00,
2013-12-11 13:20:00,24.5,19.2,30.22,West,275,2.0,8.0,80,0.00,,,0.00,Wunderground v.1.15,2013-12-11 18:20:00,
2013-12-11 13:25:00,24.5,19.2,30.21,NW,325,2.0,8.0,80,0.00,,,0.00,Wunderground v.1.15,2013-12-11 18:25:00,
2013-12-11 13:30:00,24.7,19.7,30.21,NW,325,1.0,8.0,81,0.00,,,0.00,Wunderground v.1.15,2013-12-11 18:30:00,
2013-12-11 13:35:00,24.8,19.5,30.21,NW,311,1.0,8.0,80,0.00,,,0.00,Wunderground v.1.15,2013-12-11 18:35:00,
2013-12-11 13:40:00,24.6,19.0,30.20,NNW,331,2.0,2.0,79,0.00,,,0.00,Wunderground v.1.15,2013-12-11 18:40:00,
2013-12-11 13:45:00,24.4,19.1,30.20,West,268,2.0,8.0,80,0.00,,,0.00,Wunderground v.1.15,2013-12-11 18:45:00,
2013-12-11 13:55:00,24.4,19.1,30.20,West,277,2.0,8.0,80,0.00,,,0.00,Wunderground v.1.15,2013-12-11 18:55:00,
2013-12-11 14:00:00,24.5,19.2,30.21,WNW,292,1.0,8.0,80,0.00,,,0.00,Wunderground v.1.15,2013-12-11 19:00:00,
2013-12-11 14:05:00,24.7,19.7,30.21,NW,315,1.0,8.0,81,0.00,,,0.00,Wunderground v.1.15,2013-12-11 19:05:00,
2013-12-11 14:15:00,24.9,19.6,30.21,WNW,297,1.0,8.0,80,0.00,,,0.00,Wunderground v.1.15,2013-12-11 19:15:00,
2013-12-11 14:20:00,25.0,19.7,30.21,NW,311,1.0,8.0,80,0.00,,,0.00,Wunderground v.1.15,2013-12-11 19:20:00,
2013-12-11 14:25:00,24.9,19.3,30.21,NW,307,1.0,8.0,79,0.00,,,0.00,Wunderground v.1.15,2013-12-11 19:25:00,
2013-12-11 14:30:00,24.8,19.2,30.21,West,281,2.0,8.0,79,0.00,,,0.00,Wunderground v.1.15,2013-12-11 19:30:00,
2013-12-11 14:40:00,24.7,19.4,30.21,WNW,302,2.0,2.0,80,0.00,,,0.00,Wunderground v.1.15,2013-12-11 19:40:00,
2013-12-11 14:50:00,24.6,19.0,30.21,NNW,332,2.0,2.0,79,0.00,,,0.00,Wunderground v.1.15,2013-12-11 19:50:00,
2013-12-11 14:55:00,24.6,19.3,30.21,WNW,294,2.0,3.0,80,0.00,,,0.00,Wunderground v.1.15,2013-12-11 19:55:00,
2013-12-11 15:00:00,24.6,19.0,30.21,WNW,300,2.0,8.0,79,0.00,,,0.00,Wunderground v.1.15,2013-12-11 20:00:00,
2013-12-11 15:05:00,24.5,18.9,30.21,NW,316,2.0,8.0,79,0.00,,,0.00,Wunderground v.1.15,2013-12-11 20:05:00,
2013-12-11 15:10:00,24.4,18.8,30.21,WNW,284,1.0,8.0,79,0.00,,,0.00,Wunderground v.1.15,2013-12-11 20:10:00,
2013-12-11 15:15:00,24.4,18.8,30.21,WNW,298,1.0,8.0,79,0.00,,,0.00,Wunderground v.1.15,2013-12-11 20:15:00,
2013-12-11 15:20:00,24.4,18.8,30.21,West,277,1.0,8.0,79,0.00,,,0.00,Wunderground v.1.15,2013-12-11 20:20:00,
2013-12-11 15:25:00,24.3,18.7,30.21,NW,317,1.0,8.0,79,0.00,,,0.00,Wunderground v.1.15,2013-12-11 20:25:00,
2013-12-11 15:30:00,24.3,18.7,30.21,NW,313,1.0,8.0,79,0.00,,,0.00,Wunderground v.1.15,2013-12-11 20:30:00,
2013-12-11 15:40:00,24.3,18.4,30.21,West,276,1.0,8.0,78,0.00,,,0.00,Wunderground v.1.15,2013-12-11 20:40:00,
2013-12-11 15:45:00,24.3,18.7,30.21,West,277,1.0,8.0,79,0.00,,,0.00,Wunderground v.1.15,2013-12-11 20:45:00,
2013-12-11 15:50:00,24.2,18.9,30.21,WNW,292,1.0,1.0,80,0.00,,,0.00,Wunderground v.1.15,2013-12-11 20:50:00,
2013-12-11 15:55:00,24.1,18.5,30.21,WNW,286,1.0,8.0,79,0.00,,,0.00,Wunderground v.1.15,2013-12-11 20:55:00,
2013-12-11 16:00:00,24.1,18.5,30.21,NW,315,1.0,8.0,79,0.00,,,0.00,Wunderground v.1.15,2013-12-11 21:00:00,
2013-12-11 16:05:00,24.0,18.7,30.21,West,281,1.0,8.0,80,0.00,,,0.00,Wunderground v.1.15,2013-12-11 21:05:00,
2013-12-11 16:10:00,24.0,18.7,30.20,WSW,255,1.0,8.0,80,0.00,,,0.00,Wunderground v.1.15,2013-12-11 21:10:00,
2013-12-11 16:15:00,24.0,18.4,30.20,NW,310,1.0,8.0,79,0.00,,,0.00,Wunderground v.1.15,2013-12-11 21:15:00,
2013-12-11 16:20:00,23.9,18.3,30.20,NW,304,1.0,1.0,79,0.00,,,0.00,Wunderground v.1.15,2013-12-11 21:20:00,
2013-12-11 16:30:00,23.6,18.3,30.20,WSW,255,1.0,1.0,80,0.00,,,0.00,Wunderground v.1.15,2013-12-11 21:30:00,
2013-12-11 16:35:00,23.5,18.2,30.20,WSW,255,0.0,8.0,80,0.00,,,0.00,Wunderground v.1.15,2013-12-11 21:35:00,
2013-12-11 16:40:00,23.3,18.0,30.21,West,275,0.0,8.0,80,0.00,,,0.00,Wunderground v.1.15,2013-12-11 21:40:00,
2013-12-11 16:45:00,23.1,17.8,30.20,West,259,0.0,8.0,80,0.00,,,0.00,Wunderground v.1.15,2013-12-11 21:45:00,
2013-12-11 16:50:00,22.9,17.9,30.20,West,270,0.0,8.0,81,0.00,,,0.00,Wunderground v.1.15,2013-12-11 21:50:00,
2013-12-11 16:55:00,22.8,17.8,30.20,West,270,0.0,8.0,81,0.00,,,0.00,Wunderground v.1.15,2013-12-11 21:55:00,
2013-12-11 17:05:00,22.4,17.7,30.20,West,270,0.0,8.0,82,0.00,,,0.00,Wunderground v.1.15,2013-12-11 22:05:00,
2013-12-11 17:10:00,22.1,17.7,30.20,West,270,0.0,8.0,83,0.00,,,0.00,Wunderground v.1.15,2013-12-11 22:10:00,
2013-12-11 17:15:00,21.9,17.5,30.20,West,270,0.0,8.0,83,0.00,,,0.00,Wunderground v.1.15,2013-12-11 22:15:00,
2013-12-11 17:25:00,21.6,17.5,30.20,West,270,0.0,8.0,84,0.00,,,0.00,Wunderground v.1.15,2013-12-11 22:25:00,
2013-12-11 17:30:00,21.5,17.4,30.20,West,270,0.0,8.0,84,0.00,,,0.00,Wunderground v.1.15,2013-12-11 22:30:00,
2013-12-11 17:35:00,21.4,17.6,30.20,West,270,0.0,8.0,85,0.00,,,0.00,Wunderground v.1.15,2013-12-11 22:35:00,
2013-12-11 17:40:00,21.3,17.5,30.20,West,270,0.0,8.0,85,0.00,,,0.00,Wunderground v.1.15,2013-12-11 22:40:00,
2013-12-11 17:45:00,21.3,17.5,30.20,West,270,0.0,8.0,85,0.00,,,0.00,Wunderground v.1.15,2013-12-11 22:45:00,
2013-12-11 17:50:00,21.4,17.9,30.20,West,270,0.0,8.0,86,0.00,,,0.00,Wunderground v.1.15,2013-12-11 22:50:00,
2013-12-11 17:55:00,21.4,17.6,30.20,West,270,0.0,8.0,85,0.00,,,0.00,Wunderground v.1.15,2013-12-11 22:55:00,
2013-12-11 18:00:00,21.4,17.9,30.19,West,270,0.0,8.0,86,0.00,,,0.00,Wunderground v.1.15,2013-12-11 23:00:00,
2013-12-11 18:05:00,21.5,17.7,30.20,West,270,0.0,8.0,85,0.00,,,0.00,Wunderground v.1.15,2013-12-11 23:05:00,
2013-12-11 18:10:00,21.5,18.0,30.19,West,270,0.0,8.0,86,0.00,,,0.00,Wunderground v.1.15,2013-12-11 23:10:00,
2013-12-11 18:15:00,21.5,17.7,30.19,West,270,0.0,8.0,85,0.00,,,0.00,Wunderground v.1.15,2013-12-11 23:15:00,
2013-12-11 18:25:00,21.2,17.7,30.20,West,270,0.0,8.0,86,0.00,,,0.00,Wunderground v.1.15,2013-12-11 23:25:00,
2013-12-11 18:30:00,20.9,17.4,30.20,West,270,0.0,8.0,86,0.00,,,0.00,Wunderground v.1.15,2013-12-11 23:30:00,
2013-12-11 18:35:00,20.7,17.4,30.20,West,270,0.0,8.0,87,0.00,,,0.00,Wunderground v.1.15,2013-12-11 23:35:00,
2013-12-11 18:40:00,20.5,17.2,30.20,West,270,0.0,8.0,87,0.00,,,0.00,Wunderground v.1.15,2013-12-11 23:40:00,
2013-12-11 18:45:00,20.4,17.1,30.20,West,270,0.0,8.0,87,0.00,,,0.00,Wunderground v.1.15,2013-12-11 23:45:00,
2013-12-11 18:50:00,20.5,17.5,30.20,West,270,0.0,8.0,88,0.00,,,0.00,Wunderground v.1.15,2013-12-11 23:50:00,
2013-12-11 18:55:00,20.6,17.6,30.20,West,270,0.0,8.0,88,0.00,,,0.00,Wunderground v.1.15,2013-12-11 23:55:00,
2013-12-11 19:05:00,20.6,17.6,30.20,West,270,0.0,8.0,88,0.00,,,0.00,Wunderground v.1.15,2013-12-12 00:05:00,
2013-12-11 19:10:00,20.6,17.6,30.20,West,276,0.0,8.0,88,0.00,,,0.00,Wunderground v.1.15,2013-12-12 00:10:00,
2013-12-11 19:15:00,20.9,17.9,30.20,WNW,285,0.0,8.0,88,0.00,,,0.00,Wunderground v.1.15,2013-12-12 00:15:00,
2013-12-11 19:20:00,21.1,17.8,30.20,NW,306,0.0,8.0,87,0.00,,,0.00,Wunderground v.1.15,2013-12-12 00:20:00,
2013-12-11 19:25:00,21.5,18.0,30.20,WSW,249,0.0,8.0,86,0.00,,,0.00,Wunderground v.1.15,2013-12-12 00:25:00,
2013-12-11 19:30:00,21.7,17.9,30.20,WNW,286,0.0,8.0,85,0.00,,,0.00,Wunderground v.1.15,2013-12-12 00:30:00,
2013-12-11 19:35:00,21.6,17.5,30.20,WNW,286,0.0,8.0,84,0.00,,,0.00,Wunderground v.1.15,2013-12-12 00:35:00,
2013-12-11 19:40:00,21.5,17.4,30.20,NW,310,0.0,8.0,84,0.00,,,0.00,Wunderground v.1.15,2013-12-12 00:40:00,
2013-12-11 19:45:00,21.5,17.4,30.20,West,273,0.0,8.0,84,0.00,,,0.00,Wunderground v.1.15,2013-12-12 00:45:00,
2013-12-11 19:50:00,21.6,17.5,30.20,West,273,0.0,8.0,84,0.00,,,0.00,Wunderground v.1.15,2013-12-12 00:50:00,
2013-12-11 19:55:00,21.5,17.4,30.20,West,273,0.0,8.0,84,0.00,,,0.00,Wunderground v.1.15,2013-12-12 00:55:00,
2013-12-11 20:05:00,21.5,17.1,30.20,WNW,292,0.0,8.0,83,0.00,,,0.00,Wunderground v.1.15,2013-12-12 01:05:00,
2013-12-11 20:10:00,21.5,17.1,30.20,WNW,292,0.0,8.0,83,0.00,,,0.00,Wunderground v.1.15,2013-12-12 01:10:00,
2013-12-11 20:15:00,21.3,16.9,30.20,WNW,292,0.0,8.0,83,0.00,,,0.00,Wunderground v.1.15,2013-12-12 01:15:00,
2013-12-11 20:20:00,21.2,16.8,30.20,WNW,292,0.0,8.0,83,0.00,,,0.00,Wunderground v.1.15,2013-12-12 01:20:00,
2013-12-11 20:25:00,21.1,17.0,30.20,WNW,292,0.0,8.0,84,0.00,,,0.00,Wunderground v.1.15,2013-12-12 01:25:00,
2013-12-11 20:30:00,21.1,17.0,30.20,WNW,292,0.0,8.0,84,0.00,,,0.00,Wunderground v.1.15,2013-12-12 01:30:00,
2013-12-11 20:35:00,21.2,17.1,30.20,WSW,254,0.0,8.0,84,0.00,,,0.00,Wunderground v.1.15,2013-12-12 01:35:00,
2013-12-11 20:40:00,21.2,17.1,30.20,West,277,0.0,8.0,84,0.00,,,0.00,Wunderground v.1.15,2013-12-12 01:40:00,
2013-12-11 20:45:00,21.5,17.1,30.20,WNW,291,0.0,8.0,83,0.00,,,0.00,Wunderground v.1.15,2013-12-12 01:45:00,
2013-12-11 20:55:00,21.6,17.0,30.20,West,269,1.0,8.0,82,0.00,,,0.00,Wunderground v.1.15,2013-12-12 01:55:00,
2013-12-11 21:00:00,21.4,16.8,30.20,West,269,1.0,1.0,82,0.00,,,0.00,Wunderground v.1.15,2013-12-12 02:00:00,
2013-12-11 21:05:00,21.0,16.4,30.20,West,268,0.0,8.0,82,0.00,,,0.00,Wunderground v.1.15,2013-12-12 02:05:00,
2013-12-11 21:10:00,20.9,16.5,30.20,SW,224,0.0,8.0,83,0.00,,,0.00,Wunderground v.1.15,2013-12-12 02:10:00,
2013-12-11 21:15:00,20.9,16.8,30.20,WNW,301,1.0,8.0,84,0.00,,,0.00,Wunderground v.1.15,2013-12-12 02:15:00,
2013-12-11 21:20:00,21.2,16.8,30.20,WNW,299,1.0,1.0,83,0.00,,,0.00,Wunderground v.1.15,2013-12-12 02:20:00,
2013-12-11 21:25:00,21.2,16.8,30.20,West,279,0.0,8.0,83,0.00,,,0.00,Wunderground v.1.15,2013-12-12 02:25:00,
2013-12-11 21:30:00,21.2,16.8,30.20,WNW,303,0.0,8.0,83,0.00,,,0.00,Wunderground v.1.15,2013-12-12 02:30:00,
2013-12-11 21:35:00,21.3,16.9,30.20,WNW,301,0.0,8.0,83,0.00,,,0.00,Wunderground v.1.15,2013-12-12 02:35:00,
2013-12-11 21:40:00,21.1,16.7,30.21,North,355,0.0,8.0,83,0.00,,,0.00,Wunderground v.1.15,2013-12-12 02:40:00,
2013-12-11 21:45:00,21.1,16.7,30.21,NNW,331,0.0,8.0,83,0.00,,,0.00,Wunderground v.1.15,2013-12-12 02:45:00,
2013-12-11 21:50:00,21.0,16.6,30.21,NNW,331,0.0,8.0,83,0.00,,,0.00,Wunderground v.1.15,2013-12-12 02:50:00,
2013-12-11 22:00:00,21.2,16.8,30.21,NW,309,1.0,1.0,83,0.00,,,0.00,Wunderground v.1.15,2013-12-12 03:00:00,
2013-12-11 22:05:00,21.2,16.8,30.21,NW,309,1.0,8.0,83,0.00,,,0.00,Wunderground v.1.15,2013-12-12 03:05:00,
2013-12-11 22:10:00,21.3,16.9,30.21,NW,316,0.0,8.0,83,0.00,,,0.00,Wunderground v.1.15,2013-12-12 03:10:00,
2013-12-11 22:15:00,21.2,16.8,30.21,NW,316,0.0,8.0,83,0.00,,,0.00,Wunderground v.1.15,2013-12-12 03:15:00,
2013-12-11 22:20:00,21.0,16.6,30.21,NW,316,0.0,8.0,83,0.00,,,0.00,Wunderground v.1.15,2013-12-12 03:20:00,
2013-12-11 22:25:00,20.9,16.5,30.21,NW,309,0.0,8.0,83,0.00,,,0.00,Wunderground v.1.15,2013-12-12 03:25:00,
2013-12-11 22:30:00,20.9,16.8,30.21,WSW,251,0.0,8.0,84,0.00,,,0.00,Wunderground v.1.15,2013-12-12 03:30:00,
2013-12-11 22:40:00,21.1,16.7,30.21,WNW,284,1.0,1.0,83,0.00,,,0.00,Wunderground v.1.15,2013-12-12 03:40:00,
2013-12-11 22:45:00,21.0,16.6,30.21,WNW,284,1.0,8.0,83,0.00,,,0.00,Wunderground v.1.15,2013-12-12 03:45:00,
2013-12-11 22:50:00,20.9,16.5,30.21,WNW,286,0.0,8.0,83,0.00,,,0.00,Wunderground v.1.15,2013-12-12 03:50:00,
2013-12-11 22:55:00,20.8,16.5,30.21,WNW,302,0.0,8.0,83,0.00,,,0.00,Wunderground v.1.15,2013-12-12 03:55:00,
2013-12-11 23:00:00,20.9,16.8,30.21,WNW,302,0.0,8.0,84,0.00,,,0.00,Wunderground v.1.15,2013-12-12 04:00:00,
2013-12-11 23:05:00,21.1,17.0,30.21,WNW,302,1.0,8.0,84,0.00,,,0.00,Wunderground v.1.15,2013-12-12 04:05:00,
2013-12-11 23:15:00,21.1,16.7,30.21,SW,231,0.0,8.0,83,0.00,,,0.00,Wunderground v.1.15,2013-12-12 04:15:00,
2013-12-11 23:25:00,20.8,16.7,30.21,WSW,254,0.0,8.0,84,0.00,,,0.00,Wunderground v.1.15,2013-12-12 04:25:00,
2013-12-11 23:30:00,20.7,16.6,30.22,WSW,252,0.0,8.0,84,0.00,,,0.00,Wunderground v.1.15,2013-12-12 04:30:00,
2013-12-11 23:35:00,20.7,16.6,30.22,NE,53,1.0,8.0,84,0.00,,,0.00,Wunderground v.1.15,2013-12-12 04:35:00,
2013-12-11 23:40:00,20.6,16.8,30.22,ENE,61,2.0,2.0,85,0.00,,,0.00,Wunderground v.1.15,2013-12-12 04:40:00,
2013-12-11 23:45:00,20.7,16.9,30.22,NNE,28,2.0,8.0,85,0.00,,,0.00,Wunderground v.1.15,2013-12-12 04:45:00,
2013-12-11 23:55:00,20.8,17.0,30.23,NNE,28,0.0,8.0,85,0.00,,,0.00,Wunderground v.1.15,2013-12-12 04:55:00,